Location: *
(46.1333°S, 161.2167°W)
Time: 04:08:20
(UTC+00:00)

HJ-1C - Pass Details

Date: 15 July 2020
Orbit: 432 x 446 km, 97.2° (Epoch: 10 August)

Event Time Altitude Azimuth Distance (km) Brightness Sun altitude
Rises 17:35:25 0° 18° (NNE) 2,419 7.8 -7.9°
Reaches altitude 10° 17:37:26 10° 20° (NNE) 1,557 6.8 -7.6°
Maximum altitude 17:40:45 71° 104° (ESE) 475 3.7 -7.1°
Drops below altitude 10° 17:44:07 10° 188° (S) 1,579 5.9 -6.6°
Sets 17:46:10 0° 190° (S) 2,458 6.8 -6.2°
